NSZ5372 LEAL-EKCH

Flight info

Callsign NSZ5372
Flight time 2h 53m
Altitude 34000
Route MITOS DCT ARGOR DCT EBROX DCT LATRO DCT OLOXO DCT OKABI DCT TOU DCT ADABI DCT BOKNO UN858 VANAD UN874 ARSAF DCT EGOZE DCT CMB DCT VEKIN DCT ADUTO N873 VICOT DCT TALSA P729 TUDLO
Aircraft B738/M-SDE2E3FGHIRWXY/LB1

Departure

Time 2026-05-06 14:55
Airport Alicante-Elche Miguel Hernández Airport (LEAL)

Arrival

Time 2026-05-06 17:49
Airport Copenhagen Kastrup Airport (EKCH)
Time Latitude Longitude Altitude Speed Heading
2026-05-06 14:12 38.28516 -0.55234 90 ft 0 kts 10°
2026-05-06 14:41 38.28512 -0.55235 90 ft 3 kts 10°
2026-05-06 14:41 38.28486 -0.55239 87 ft 4 kts
2026-05-06 14:41 38.28459 -0.55237 90 ft 4 kts 339°
2026-05-06 14:42 38.28443 -0.55221 87 ft 2 kts 281°
2026-05-06 14:42 38.28443 -0.55219 87 ft 0 kts 280°
2026-05-06 14:45 38.28445 -0.55231 87 ft 3 kts 281°
2026-05-06 14:45 38.28451 -0.55269 88 ft 6 kts 281°
2026-05-06 14:45 38.28459 -0.55319 89 ft 6 kts 282°
2026-05-06 14:46 38.28467 -0.55368 91 ft 6 kts 282°
2026-05-06 14:46 38.28476 -0.55417 91 ft 6 kts 282°
2026-05-06 14:46 38.28484 -0.55465 94 ft 6 kts 282°
2026-05-06 14:46 38.28491 -0.55512 95 ft 5 kts 281°
2026-05-06 14:47 38.28488 -0.55557 94 ft 5 kts 230°
2026-05-06 14:47 38.28461 -0.55590 95 ft 5 kts 211°
2026-05-06 14:47 38.28425 -0.55603 99 ft 2 kts 190°
2026-05-06 14:50 38.28407 -0.55607 98 ft 6 kts 191°
2026-05-06 14:50 38.28376 -0.55646 98 ft 7 kts 257°
2026-05-06 14:50 38.28381 -0.55715 100 ft 10 kts 279°
2026-05-06 14:51 38.28396 -0.55829 103 ft 16 kts 281°
2026-05-06 14:51 38.28420 -0.55993 106 ft 20 kts 280°
2026-05-06 14:51 38.28444 -0.56165 107 ft 19 kts 280°
2026-05-06 14:51 38.28467 -0.56332 111 ft 19 kts 280°
2026-05-06 14:52 38.28490 -0.56494 117 ft 18 kts 280°
2026-05-06 14:52 38.28511 -0.56650 120 ft 18 kts 280°
2026-05-06 14:52 38.28532 -0.56801 125 ft 17 kts 280°
2026-05-06 14:52 38.28553 -0.56947 133 ft 16 kts 280°
2026-05-06 14:53 38.28573 -0.57086 139 ft 16 kts 281°
2026-05-06 14:53 38.28593 -0.57225 145 ft 17 kts 280°
2026-05-06 14:53 38.28611 -0.57364 150 ft 14 kts 275°
2026-05-06 14:53 38.28549 -0.57428 153 ft 13 kts 192°
2026-05-06 14:54 38.28464 -0.57440 154 ft 11 kts 182°
2026-05-06 14:54 38.28438 -0.57407 152 ft 0 kts 99°
2026-05-06 14:54 38.28438 -0.57406 152 ft 1 kts 99°
2026-05-06 14:54 38.28417 -0.57250 145 ft 48 kts 100°
2026-05-06 14:55 38.28316 -0.56522 114 ft 114 kts 100°
2026-05-06 14:55 38.28146 -0.55298 146 ft 160 kts 99°
2026-05-06 14:55 38.27926 -0.53897 817 ft 160 kts 100°
2026-05-06 14:55 38.27695 -0.52482 1339 ft 177 kts 99°
2026-05-06 14:56 38.27428 -0.50807 1456 ft 207 kts 99°
2026-05-06 14:56 38.27420 -0.48936 1753 ft 222 kts 72°
2026-05-06 14:56 38.28128 -0.47098 2169 ft 237 kts 58°
2026-05-06 14:56 38.29048 -0.45322 2754 ft 245 kts 58°
2026-05-06 14:57 38.30014 -0.43479 3359 ft 253 kts 57°
2026-05-06 14:57 38.30992 -0.41608 4080 ft 256 kts 57°
2026-05-06 14:57 38.31997 -0.39686 4667 ft 265 kts 56°
2026-05-06 14:57 38.33026 -0.37708 5311 ft 270 kts 57°
2026-05-06 14:58 38.33863 -0.35537 5940 ft 277 kts 68°
2026-05-06 14:58 38.34549 -0.33213 6544 ft 283 kts 69°
2026-05-06 14:58 38.35336 -0.30919 7199 ft 285 kts 53°
2026-05-06 14:58 38.36840 -0.29320 7724 ft 286 kts 21°
2026-05-06 14:59 38.38695 -0.28413 8406 ft 286 kts 17°
2026-05-06 14:59 38.40576 -0.27545 9069 ft 289 kts 17°
2026-05-06 14:59 38.42481 -0.26658 9702 ft 293 kts 17°
2026-05-06 14:59 38.44400 -0.25749 10276 ft 299 kts 18°
2026-05-06 15:00 38.46416 -0.24784 10412 ft 320 kts 18°
2026-05-06 15:00 38.48562 -0.23744 10568 ft 339 kts 18°
2026-05-06 15:00 38.50817 -0.22635 10881 ft 352 kts 18°
2026-05-06 15:00 38.53118 -0.21491 11402 ft 358 kts 19°
2026-05-06 15:01 38.55449 -0.20322 12029 ft 361 kts 19°
2026-05-06 15:01 38.57796 -0.19145 12684 ft 364 kts 19°
2026-05-06 15:01 38.60168 -0.17954 13309 ft 368 kts 18°
2026-05-06 15:01 38.62561 -0.16751 13928 ft 371 kts 19°
2026-05-06 15:02 38.64981 -0.15531 14446 ft 377 kts 19°
2026-05-06 15:02 38.67432 -0.14294 15004 ft 381 kts 19°
2026-05-06 15:02 38.69911 -0.13042 15546 ft 386 kts 19°
2026-05-06 15:02 38.72425 -0.11773 16159 ft 389 kts 19°
2026-05-06 15:03 38.74963 -0.10494 16677 ft 395 kts 19°
2026-05-06 15:03 38.77533 -0.09195 17267 ft 399 kts 18°
2026-05-06 15:03 38.80123 -0.07885 17863 ft 402 kts 18°
2026-05-06 15:03 38.82738 -0.06559 18371 ft 407 kts 18°
2026-05-06 15:04 38.85387 -0.05215 18828 ft 412 kts 18°
2026-05-06 15:04 38.87157 -0.04317 19172 ft 413 kts 18°
2026-05-06 15:04 38.89839 -0.02957 19679 ft 416 kts 18°
2026-05-06 15:04 38.92538 -0.01589 20218 ft 418 kts 18°
2026-05-06 15:05 38.95248 -0.00213 20694 ft 421 kts 18°
2026-05-06 15:05 38.97991 0.01185 21093 ft 426 kts 18°
2026-05-06 15:05 39.00759 0.02595 21524 ft 430 kts 18°
2026-05-06 15:05 39.03546 0.04016 22008 ft 432 kts 18°
2026-05-06 15:06 39.06349 0.05447 22476 ft 435 kts 18°
2026-05-06 15:06 39.09170 0.06888 22921 ft 438 kts 18°
2026-05-06 15:06 39.12014 0.08340 23331 ft 442 kts 18°
2026-05-06 15:06 39.14875 0.09805 23725 ft 444 kts 18°
2026-05-06 15:07 39.17751 0.11275 24087 ft 446 kts 18°
2026-05-06 15:07 39.20652 0.12761 24399 ft 450 kts 18°
2026-05-06 15:07 39.23569 0.14257 24729 ft 453 kts 18°
2026-05-06 15:07 39.26506 0.15766 25075 ft 456 kts 18°
2026-05-06 15:08 39.29459 0.17284 25404 ft 458 kts 18°
2026-05-06 15:08 39.32433 0.18814 25707 ft 462 kts 18°
2026-05-06 15:08 39.35427 0.20356 26061 ft 464 kts 17°
2026-05-06 15:08 39.38440 0.21906 26331 ft 470 kts 17°
2026-05-06 15:09 39.41480 0.23506 26683 ft 472 kts 18°
2026-05-06 15:09 39.44531 0.25086 27013 ft 474 kts 17°
2026-05-06 15:09 39.47609 0.26655 27279 ft 477 kts 17°
2026-05-06 15:09 39.50700 0.28248 27548 ft 480 kts 17°
2026-05-06 15:10 39.53802 0.29876 27827 ft 483 kts 19°
2026-05-06 15:10 39.56811 0.31891 28103 ft 490 kts 26°
2026-05-06 15:10 39.59739 0.34164 28367 ft 492 kts 28°
2026-05-06 15:11 39.65597 0.38929 28682 ft 500 kts 28°
2026-05-06 15:11 39.67552 0.40513 28904 ft 501 kts 28°
2026-05-06 15:11 39.71521 0.43690 29310 ft 502 kts 27°
2026-05-06 15:11 39.74511 0.46061 29567 ft 504 kts 27°
2026-05-06 15:12 39.77503 0.48423 29892 ft 504 kts 27°
2026-05-06 15:12 39.80459 0.50752 30254 ft 503 kts 27°
2026-05-06 15:12 39.83451 0.53110 30535 ft 503 kts 27°
2026-05-06 15:12 39.86453 0.55476 30721 ft 506 kts 27°
2026-05-06 15:13 39.89462 0.57852 30987 ft 506 kts 27°
2026-05-06 15:13 39.92462 0.60227 31330 ft 504 kts 27°
2026-05-06 15:13 39.95453 0.62596 31671 ft 503 kts 26°
2026-05-06 15:13 39.98443 0.64969 31948 ft 503 kts 26°
2026-05-06 15:14 40.01431 0.67341 32195 ft 503 kts 26°
2026-05-06 15:14 40.04420 0.69716 32496 ft 503 kts 26°
2026-05-06 15:14 40.07401 0.72087 32833 ft 501 kts 26°
2026-05-06 15:14 40.10371 0.74452 33161 ft 499 kts 26°
2026-05-06 15:15 40.13328 0.76809 33490 ft 497 kts 26°
2026-05-06 15:15 40.16280 0.79164 33749 ft 497 kts 26°
2026-05-06 15:15 40.19230 0.81519 33911 ft 498 kts 26°
2026-05-06 15:16 40.25178 0.86275 33968 ft 502 kts 26°
2026-05-06 15:16 40.31116 0.91043 33932 ft 496 kts 26°
2026-05-06 15:17 40.36026 0.94989 33932 ft 494 kts 26°
2026-05-06 15:17 40.42839 1.00471 33936 ft 494 kts 26°
2026-05-06 15:18 40.48697 1.05193 33952 ft 494 kts 26°
2026-05-06 15:18 40.54559 1.09931 33939 ft 495 kts 26°
2026-05-06 15:19 40.60419 1.14679 33909 ft 495 kts 26°
2026-05-06 15:19 40.66280 1.19439 33917 ft 495 kts 26°
2026-05-06 15:20 40.72289 1.23750 33915 ft 486 kts 14°
2026-05-06 15:20 40.78717 1.26170 33922 ft 480 kts
2026-05-06 15:21 40.85188 1.28372 33923 ft 481 kts
2026-05-06 15:21 40.91664 1.30634 33958 ft 482 kts
2026-05-06 15:22 40.98151 1.32959 33921 ft 483 kts
2026-05-06 15:22 41.04643 1.35305 33910 ft 484 kts
2026-05-06 15:23 41.11134 1.37655 33914 ft 483 kts
2026-05-06 15:23 41.15428 1.39210 33925 ft 483 kts
2026-05-06 15:24 41.24100 1.42354 33918 ft 483 kts
2026-05-06 15:24 41.30578 1.44709 33911 ft 482 kts
2026-05-06 15:25 41.37037 1.47059 33935 ft 481 kts
2026-05-06 15:25 41.43455 1.49402 33908 ft 481 kts
2026-05-06 15:26 41.49905 1.51765 33902 ft 480 kts
2026-05-06 15:26 41.56341 1.54122 33925 ft 479 kts
2026-05-06 15:27 41.62776 1.56484 33906 ft 479 kts
2026-05-06 15:27 41.69208 1.58851 33894 ft 480 kts
2026-05-06 15:28 41.75659 1.61056 33900 ft 474 kts
2026-05-06 15:28 41.82131 1.61204 33917 ft 460 kts 346°
2026-05-06 15:29 41.88485 1.60129 33919 ft 460 kts 346°
2026-05-06 15:29 41.94849 1.59045 33922 ft 462 kts 346°
2026-05-06 15:30 42.01226 1.58014 33939 ft 462 kts 346°
2026-05-06 15:30 42.07616 1.57006 33924 ft 463 kts 346°
2026-05-06 15:31 42.14026 1.55995 33916 ft 463 kts 346°
2026-05-06 15:31 42.20420 1.54983 33930 ft 462 kts 346°
2026-05-06 15:32 42.29976 1.53462 33911 ft 461 kts 346°
2026-05-06 15:32 42.35281 1.52615 33931 ft 462 kts 347°
2026-05-06 15:33 42.42738 1.51422 33921 ft 462 kts 347°
2026-05-06 15:33 42.49113 1.50404 33926 ft 461 kts 347°
2026-05-06 15:34 42.55477 1.49385 33924 ft 460 kts 347°
2026-05-06 15:34 42.61826 1.48370 33957 ft 460 kts 347°
2026-05-06 15:35 42.68123 1.47357 33940 ft 457 kts 347°
2026-05-06 15:35 42.74436 1.46344 33968 ft 457 kts 347°
2026-05-06 15:36 42.80734 1.45323 33960 ft 454 kts 347°
2026-05-06 15:36 42.87000 1.44308 33987 ft 451 kts 347°
2026-05-06 15:37 42.93252 1.43295 33972 ft 453 kts 347°
2026-05-06 15:37 42.99522 1.42274 33977 ft 453 kts 347°
2026-05-06 15:38 43.05784 1.41257 33962 ft 454 kts 347°
2026-05-06 15:38 43.12059 1.40232 33957 ft 454 kts 347°
2026-05-06 15:39 43.18340 1.39206 33954 ft 454 kts 347°
2026-05-06 15:39 43.24621 1.38177 33959 ft 455 kts 347°
2026-05-06 15:40 43.30912 1.37146 33960 ft 456 kts 347°
2026-05-06 15:40 43.36158 1.36286 33934 ft 457 kts 347°
2026-05-06 15:41 43.43544 1.35068 33976 ft 458 kts 348°
2026-05-06 15:41 43.49876 1.34021 33941 ft 459 kts 348°
2026-05-06 15:42 43.56218 1.32977 33930 ft 459 kts 348°
2026-05-06 15:42 43.62552 1.31922 33959 ft 458 kts 348°
2026-05-06 15:43 43.68869 1.30851 33933 ft 456 kts 347°
2026-05-06 15:43 43.75082 1.29358 33937 ft 452 kts 345°
2026-05-06 15:44 43.81230 1.27691 33933 ft 449 kts 344°
2026-05-06 15:44 43.87357 1.26052 33944 ft 448 kts 345°
2026-05-06 15:45 43.93484 1.24447 33922 ft 447 kts 345°
2026-05-06 15:45 43.99591 1.22861 33912 ft 446 kts 345°
2026-05-06 15:46 44.05694 1.21273 33934 ft 447 kts 346°
2026-05-06 15:46 44.11808 1.19682 33934 ft 447 kts 346°
2026-05-06 15:47 44.17937 1.18082 33925 ft 448 kts 346°
2026-05-06 15:47 44.24035 1.16485 33934 ft 450 kts 346°
2026-05-06 15:48 44.30187 1.14871 33928 ft 450 kts 346°
2026-05-06 15:48 44.36343 1.13253 33921 ft 450 kts 347°
2026-05-06 15:49 44.42500 1.11632 33932 ft 450 kts 347°
2026-05-06 15:49 44.48634 1.10012 33914 ft 448 kts 347°
2026-05-06 15:50 44.54739 1.08399 33909 ft 445 kts 347°
2026-05-06 15:50 44.60810 1.06789 33910 ft 443 kts 347°
2026-05-06 15:51 44.65833 1.05456 33915 ft 441 kts 347°
2026-05-06 15:51 44.71848 1.03855 33917 ft 440 kts 347°
2026-05-06 15:52 44.77853 1.02252 33920 ft 439 kts 347°
2026-05-06 15:52 44.83854 1.00651 33918 ft 439 kts 347°
2026-05-06 15:53 44.89854 0.99042 33917 ft 439 kts 347°
2026-05-06 15:53 44.95862 0.97430 33919 ft 440 kts 347°
2026-05-06 15:54 45.01888 0.95808 33925 ft 443 kts 347°
2026-05-06 15:54 45.07961 0.94168 33906 ft 445 kts 347°
2026-05-06 15:55 45.14045 0.92521 33914 ft 446 kts 347°
2026-05-06 15:55 45.20138 0.90876 33925 ft 446 kts 348°
2026-05-06 15:56 45.26223 0.89227 33907 ft 445 kts 348°
2026-05-06 15:56 45.32299 0.87576 33904 ft 443 kts 348°
2026-05-06 15:57 45.38302 0.85940 33904 ft 441 kts 348°
2026-05-06 15:57 45.44346 0.84288 33903 ft 439 kts 348°
2026-05-06 15:58 45.50331 0.82649 33899 ft 437 kts 348°
2026-05-06 15:58 45.56293 0.81016 33893 ft 436 kts 348°
2026-05-06 15:59 45.62248 0.79380 33897 ft 436 kts 348°
2026-05-06 15:59 45.68205 0.77738 33906 ft 436 kts 348°
2026-05-06 16:00 45.74172 0.76090 33905 ft 438 kts 348°
2026-05-06 16:00 45.80109 0.74447 33902 ft 437 kts 348°
2026-05-06 16:01 45.86078 0.72790 33892 ft 437 kts 348°
2026-05-06 16:01 45.92048 0.71131 33907 ft 437 kts 348°
2026-05-06 16:02 45.98027 0.69468 33908 ft 437 kts 348°
2026-05-06 16:02 46.03999 0.67801 33908 ft 437 kts 348°
2026-05-06 16:03 46.09958 0.66134 33911 ft 435 kts 348°
2026-05-06 16:03 46.15903 0.64468 33908 ft 435 kts 348°
2026-05-06 16:04 46.21849 0.62797 33919 ft 435 kts 348°
2026-05-06 16:04 46.27790 0.61124 33918 ft 435 kts 348°
2026-05-06 16:05 46.33729 0.59449 33922 ft 434 kts 348°
2026-05-06 16:05 46.39667 0.57768 33932 ft 435 kts 348°
2026-05-06 16:06 46.45617 0.56081 33934 ft 436 kts 348°
2026-05-06 16:06 46.51584 0.54386 33937 ft 437 kts 348°
2026-05-06 16:07 46.57646 0.53724 33947 ft 440 kts
2026-05-06 16:07 46.63661 0.55408 33943 ft 442 kts 12°
2026-05-06 16:08 46.69673 0.57495 34142 ft 445 kts 12°
2026-05-06 16:08 46.72677 0.58525 34412 ft 443 kts 12°
2026-05-06 16:08 46.75686 0.59542 34575 ft 444 kts 12°
2026-05-06 16:09 46.78701 0.60548 34708 ft 446 kts 11°
2026-05-06 16:09 46.81734 0.61555 34891 ft 447 kts 12°
2026-05-06 16:09 46.84766 0.62559 35075 ft 447 kts 11°
2026-05-06 16:09 46.87805 0.63568 35210 ft 449 kts 11°
2026-05-06 16:10 46.90855 0.64581 35365 ft 450 kts 11°
2026-05-06 16:10 46.93906 0.65596 35574 ft 450 kts 12°
2026-05-06 16:10 46.96958 0.66612 35756 ft 450 kts 11°
2026-05-06 16:10 47.00008 0.67632 35919 ft 450 kts 12°
2026-05-06 16:11 47.06165 0.69507 36138 ft 452 kts
2026-05-06 16:11 47.09296 0.69908 36321 ft 451 kts
2026-05-06 16:11 47.12427 0.70182 36502 ft 451 kts
2026-05-06 16:12 47.15560 0.70433 36632 ft 452 kts
2026-05-06 16:12 47.18703 0.70700 36770 ft 453 kts
2026-05-06 16:12 47.21845 0.70997 36931 ft 452 kts
2026-05-06 16:12 47.24993 0.71310 36925 ft 455 kts
2026-05-06 16:13 47.31307 0.71967 36932 ft 454 kts
2026-05-06 16:13 47.37594 0.72635 36930 ft 451 kts
2026-05-06 16:14 47.43837 0.73293 36934 ft 448 kts
2026-05-06 16:14 47.50031 0.74147 36928 ft 447 kts 10°
2026-05-06 16:15 47.55974 0.76843 36944 ft 449 kts 18°
2026-05-06 16:15 47.61926 0.79896 36950 ft 455 kts 18°
2026-05-06 16:16 47.67911 0.82895 36948 ft 458 kts 17°
2026-05-06 16:16 47.73981 0.85890 36934 ft 461 kts 17°
2026-05-06 16:17 47.80078 0.88902 36946 ft 462 kts 17°
2026-05-06 16:17 47.86184 0.91938 36930 ft 463 kts 17°
2026-05-06 16:18 47.92272 0.95018 36934 ft 461 kts 18°
2026-05-06 16:18 47.98340 0.98096 36931 ft 459 kts 18°
2026-05-06 16:19 48.04368 1.01163 36933 ft 457 kts 17°
2026-05-06 16:19 48.10371 1.04215 36933 ft 454 kts 17°
2026-05-06 16:20 48.16339 1.07260 36930 ft 452 kts 17°
2026-05-06 16:20 48.22287 1.10300 36941 ft 451 kts 17°
2026-05-06 16:21 48.28228 1.13325 36939 ft 451 kts 17°
2026-05-06 16:21 48.34182 1.16361 36936 ft 452 kts 18°
2026-05-06 16:22 48.40139 1.19409 36937 ft 453 kts 17°
2026-05-06 16:22 48.46108 1.22470 36938 ft 454 kts 17°
2026-05-06 16:23 48.52105 1.25554 36935 ft 456 kts 17°
2026-05-06 16:23 48.58119 1.28638 36938 ft 457 kts 17°
2026-05-06 16:24 48.64162 1.31674 36929 ft 458 kts 17°
2026-05-06 16:24 48.70234 1.34723 36941 ft 460 kts 17°
2026-05-06 16:25 48.76315 1.37805 36936 ft 462 kts 17°
2026-05-06 16:25 48.82411 1.40900 36937 ft 462 kts 17°
2026-05-06 16:26 48.88514 1.44006 36937 ft 462 kts 17°
2026-05-06 16:26 48.94571 1.47251 36927 ft 462 kts 24°
2026-05-06 16:27 48.99920 1.52645 36943 ft 463 kts 42°
2026-05-06 16:27 49.04269 1.59881 36942 ft 464 kts 48°
2026-05-06 16:28 49.08497 1.67308 36849 ft 463 kts 50°
2026-05-06 16:28 49.12744 1.74675 36928 ft 461 kts 50°
2026-05-06 16:29 49.16996 1.82003 36926 ft 461 kts 49°
2026-05-06 16:29 49.21248 1.89335 36949 ft 461 kts 49°
2026-05-06 16:30 49.24734 1.95373 36926 ft 463 kts 50°
2026-05-06 16:30 49.29260 2.03228 36940 ft 464 kts 50°
2026-05-06 16:31 49.33464 2.10541 36946 ft 465 kts 50°
2026-05-06 16:31 49.37728 2.17988 36933 ft 466 kts 50°
2026-05-06 16:32 49.41701 2.24944 36923 ft 466 kts 50°
2026-05-06 16:32 49.45973 2.32445 36929 ft 467 kts 50°
2026-05-06 16:33 49.50249 2.39972 36935 ft 467 kts 50°
2026-05-06 16:34 49.57017 2.50738 36929 ft 468 kts 35°
2026-05-06 16:34 49.62518 2.56097 36910 ft 468 kts 32°
2026-05-06 16:35 49.67137 2.60449 36908 ft 468 kts 32°
2026-05-06 16:35 49.73610 2.66659 36908 ft 468 kts 32°
2026-05-06 16:36 49.78196 2.71125 36907 ft 469 kts 33°
2026-05-06 16:36 49.83712 2.76527 36903 ft 469 kts 33°
2026-05-06 16:37 49.89213 2.81922 36910 ft 469 kts 33°
2026-05-06 16:37 49.94743 2.87366 36912 ft 470 kts 33°
2026-05-06 16:38 50.00269 2.92817 36908 ft 471 kts 33°
2026-05-06 16:38 50.05800 2.98287 36905 ft 471 kts 33°
2026-05-06 16:39 50.11330 3.03772 36904 ft 471 kts 33°
2026-05-06 16:39 50.16865 3.09274 36913 ft 472 kts 33°
2026-05-06 16:40 50.22396 3.14777 36906 ft 472 kts 31°
2026-05-06 16:40 50.28283 3.19278 36913 ft 471 kts 22°
2026-05-06 16:41 50.34329 3.23263 36896 ft 472 kts 23°
2026-05-06 16:41 50.40328 3.27428 36912 ft 471 kts 24°
2026-05-06 16:42 50.46207 3.31984 36910 ft 472 kts 27°
2026-05-06 16:42 50.52059 3.36629 36910 ft 471 kts 25°
2026-05-06 16:43 50.58049 3.40839 36907 ft 472 kts 22°
2026-05-06 16:43 50.64089 3.44882 36918 ft 472 kts 22°
2026-05-06 16:44 50.70125 3.48994 36899 ft 473 kts 23°
2026-05-06 16:44 50.76151 3.53165 36906 ft 472 kts 23°
2026-05-06 16:45 50.82173 3.57349 36898 ft 473 kts 23°
2026-05-06 16:45 50.88190 3.61531 36903 ft 473 kts 23°
2026-05-06 16:46 50.94203 3.65748 36901 ft 473 kts 23°
2026-05-06 16:46 51.00189 3.70071 36902 ft 472 kts 24°
2026-05-06 16:47 51.06157 3.74401 36900 ft 471 kts 24°
2026-05-06 16:47 51.12126 3.78728 36903 ft 471 kts 24°
2026-05-06 16:48 51.18097 3.83063 36881 ft 471 kts 24°
2026-05-06 16:48 51.24014 3.87371 36898 ft 471 kts 24°
2026-05-06 16:49 51.29970 3.91714 36902 ft 471 kts 24°
2026-05-06 16:49 51.35927 3.96076 36897 ft 471 kts 24°
2026-05-06 16:50 51.41896 4.00458 36893 ft 472 kts 24°
2026-05-06 16:50 51.47824 4.05004 36880 ft 475 kts 30°
2026-05-06 16:51 51.53053 4.11467 36879 ft 475 kts 40°
2026-05-06 16:51 51.58006 4.18491 36888 ft 475 kts 41°
2026-05-06 16:52 51.62961 4.25508 36884 ft 474 kts 41°
2026-05-06 16:52 51.67933 4.32481 36884 ft 473 kts 40°
2026-05-06 16:53 51.72901 4.39431 36904 ft 473 kts 40°
2026-05-06 16:53 51.77861 4.46386 36910 ft 472 kts 40°
2026-05-06 16:54 51.82814 4.53347 36898 ft 472 kts 40°
2026-05-06 16:54 51.87794 4.60370 36921 ft 471 kts 40°
2026-05-06 16:55 51.92700 4.67311 36905 ft 472 kts 40°
2026-05-06 16:55 51.97635 4.74315 36930 ft 471 kts 40°
2026-05-06 16:56 52.02567 4.81332 36901 ft 472 kts 40°
2026-05-06 16:56 52.07526 4.88409 36914 ft 471 kts 40°
2026-05-06 16:57 52.12408 4.95402 36891 ft 471 kts 40°
2026-05-06 16:57 52.17321 5.02466 36912 ft 471 kts 40°
2026-05-06 16:58 52.22229 5.09535 36906 ft 471 kts 40°
2026-05-06 16:58 52.27162 5.16667 36919 ft 470 kts 40°
2026-05-06 16:59 52.32054 5.23760 36912 ft 471 kts 41°
2026-05-06 16:59 52.36945 5.30880 36914 ft 471 kts 41°
2026-05-06 17:00 52.41836 5.38021 36916 ft 472 kts 41°
2026-05-06 17:00 52.46734 5.45193 36906 ft 472 kts 41°
2026-05-06 17:01 52.51593 5.52320 36910 ft 471 kts 41°
2026-05-06 17:01 52.56474 5.59504 36914 ft 471 kts 41°
2026-05-06 17:02 52.61353 5.66716 36919 ft 472 kts 41°
2026-05-06 17:02 52.66233 5.73948 36915 ft 472 kts 41°
2026-05-06 17:03 52.71119 5.81212 36920 ft 473 kts 41°
2026-05-06 17:03 52.76001 5.88492 36911 ft 473 kts 41°
2026-05-06 17:04 52.80916 5.95851 36923 ft 474 kts 41°
2026-05-06 17:04 52.85769 6.03135 36929 ft 475 kts 41°
2026-05-06 17:05 52.90685 6.10535 36918 ft 475 kts 41°
2026-05-06 17:05 52.95574 6.17922 36920 ft 475 kts 41°
2026-05-06 17:06 53.00457 6.25315 36928 ft 475 kts 41°
2026-05-06 17:06 53.05335 6.32728 36915 ft 475 kts 41°
2026-05-06 17:07 53.10208 6.40150 36938 ft 475 kts 41°
2026-05-06 17:07 53.15066 6.47588 36920 ft 475 kts 41°
2026-05-06 17:08 53.19877 6.55113 36915 ft 474 kts 44°
2026-05-06 17:08 53.24364 6.63185 36912 ft 474 kts 47°
2026-05-06 17:09 53.28744 6.71410 36909 ft 473 kts 47°
2026-05-06 17:09 53.33142 6.79601 36914 ft 473 kts 47°
2026-05-06 17:10 53.37569 6.87754 36922 ft 474 kts 47°
2026-05-06 17:10 53.42009 6.95923 36914 ft 475 kts 47°
2026-05-06 17:11 53.46418 7.04058 36925 ft 475 kts 47°
2026-05-06 17:11 53.50858 7.12288 36919 ft 475 kts 47°
2026-05-06 17:12 53.55288 7.20542 37066 ft 477 kts 47°
2026-05-06 17:12 53.59746 7.28861 36938 ft 478 kts 47°
2026-05-06 17:13 53.64193 7.37185 36924 ft 477 kts 47°
2026-05-06 17:13 53.68623 7.45509 36922 ft 476 kts 47°
2026-05-06 17:14 53.73033 7.53823 36906 ft 474 kts 48°
2026-05-06 17:14 53.77419 7.62126 36923 ft 473 kts 48°
2026-05-06 17:15 53.81790 7.70428 36913 ft 472 kts 48°
2026-05-06 17:15 53.85814 7.78096 36909 ft 472 kts 48°
2026-05-06 17:16 53.90168 7.86412 36913 ft 472 kts 48°
2026-05-06 17:16 53.94500 7.94718 36922 ft 472 kts 48°
2026-05-06 17:17 53.98117 8.01678 36910 ft 473 kts 48°
2026-05-06 17:17 54.02453 8.10043 36910 ft 475 kts 48°
2026-05-06 17:18 54.06790 8.18442 36906 ft 476 kts 48°
2026-05-06 17:18 54.10963 8.26558 36901 ft 477 kts 48°
2026-05-06 17:19 54.15284 8.34981 36910 ft 478 kts 49°
2026-05-06 17:19 54.19665 8.43537 36894 ft 479 kts 49°
2026-05-06 17:20 54.24036 8.52120 36895 ft 479 kts 49°
2026-05-06 17:20 54.28405 8.60732 36897 ft 479 kts 49°
2026-05-06 17:21 54.32778 8.69372 36910 ft 480 kts 49°
2026-05-06 17:21 54.37140 8.78024 36902 ft 480 kts 49°
2026-05-06 17:22 54.41498 8.86704 36905 ft 480 kts 49°
2026-05-06 17:22 54.45847 8.95397 36907 ft 480 kts 49°
2026-05-06 17:23 54.50165 9.04045 36911 ft 480 kts 49°
2026-05-06 17:23 54.54491 9.12754 36903 ft 471 kts 49°
2026-05-06 17:24 54.58773 9.21400 36913 ft 478 kts 49°
2026-05-06 17:24 54.63120 9.30213 36521 ft 491 kts 49°
2026-05-06 17:24 54.65337 9.34724 35911 ft 492 kts 49°
2026-05-06 17:25 54.67539 9.39211 35322 ft 488 kts 49°
2026-05-06 17:25 54.69730 9.43682 34750 ft 486 kts 50°
2026-05-06 17:25 54.71907 9.48132 34190 ft 484 kts 50°
2026-05-06 17:25 54.74046 9.52511 33589 ft 482 kts 50°
2026-05-06 17:26 54.76204 9.56939 32917 ft 480 kts 50°
2026-05-06 17:26 54.78378 9.61411 32278 ft 478 kts 50°
2026-05-06 17:26 54.80516 9.65811 31649 ft 476 kts 50°
2026-05-06 17:26 54.82644 9.70195 31033 ft 474 kts 50°
2026-05-06 17:27 54.84762 9.74567 30432 ft 471 kts 50°
2026-05-06 17:27 54.86868 9.78924 29852 ft 474 kts 50°
2026-05-06 17:27 54.89011 9.83366 29194 ft 486 kts 51°
2026-05-06 17:27 54.91195 9.87907 28557 ft 492 kts 51°
2026-05-06 17:28 54.93388 9.92473 27928 ft 492 kts 50°
2026-05-06 17:28 54.95577 9.97035 27308 ft 491 kts 50°
2026-05-06 17:28 54.97763 10.01600 26702 ft 490 kts 50°
2026-05-06 17:28 54.99926 10.06129 26117 ft 489 kts 50°
2026-05-06 17:29 55.02106 10.10698 25542 ft 492 kts 50°
2026-05-06 17:29 55.04293 10.15293 24976 ft 492 kts 50°
2026-05-06 17:29 55.06464 10.19861 24441 ft 486 kts 50°
2026-05-06 17:29 55.08599 10.24363 23985 ft 477 kts 50°
2026-05-06 17:30 55.10691 10.28780 23542 ft 468 kts 50°
2026-05-06 17:30 55.12743 10.33123 23015 ft 460 kts 50°
2026-05-06 17:30 55.14760 10.37399 22496 ft 453 kts 50°
2026-05-06 17:30 55.16746 10.41621 21972 ft 446 kts 50°
2026-05-06 17:31 55.18699 10.45774 21486 ft 439 kts 50°
2026-05-06 17:31 55.20605 10.49834 21000 ft 434 kts 50°
2026-05-06 17:31 55.22504 10.53887 20511 ft 428 kts 50°
2026-05-06 17:31 55.24379 10.57892 20060 ft 422 kts 50°
2026-05-06 17:32 55.26222 10.61838 19688 ft 414 kts 49°
2026-05-06 17:32 55.27836 10.65958 19319 ft 408 kts 65°
2026-05-06 17:32 55.28712 10.70634 19035 ft 401 kts 75°
2026-05-06 17:32 55.29454 10.75316 18712 ft 395 kts 74°
2026-05-06 17:33 55.30203 10.79910 18403 ft 391 kts 73°
2026-05-06 17:33 55.30970 10.84500 18097 ft 394 kts 73°
2026-05-06 17:33 55.31755 10.89131 17745 ft 397 kts 73°
2026-05-06 17:33 55.32541 10.93759 17398 ft 394 kts 73°
2026-05-06 17:34 55.33317 10.98350 17052 ft 389 kts 73°
2026-05-06 17:34 55.34076 11.02904 16953 ft 389 kts 73°
2026-05-06 17:34 55.34833 11.07460 16936 ft 388 kts 73°
2026-05-06 17:34 55.35587 11.12009 16932 ft 388 kts 73°
2026-05-06 17:35 55.36339 11.16557 16931 ft 387 kts 73°
2026-05-06 17:35 55.37086 11.21087 16939 ft 386 kts 73°
2026-05-06 17:35 55.37835 11.25635 16941 ft 387 kts 73°
2026-05-06 17:36 55.39326 11.34723 16945 ft 387 kts 73°
2026-05-06 17:36 55.40067 11.39273 16949 ft 387 kts 73°
2026-05-06 17:36 55.40808 11.43823 16934 ft 387 kts 73°
2026-05-06 17:36 55.41547 11.48368 16948 ft 386 kts 73°
2026-05-06 17:37 55.42283 11.52897 16926 ft 381 kts 73°
2026-05-06 17:37 55.42996 11.57312 16849 ft 370 kts 73°
2026-05-06 17:37 55.43686 11.61608 16687 ft 360 kts 74°
2026-05-06 17:37 55.44075 11.65919 16317 ft 356 kts 88°
2026-05-06 17:38 55.44073 11.70265 15918 ft 354 kts 91°
2026-05-06 17:38 55.44014 11.74556 15426 ft 347 kts 91°
2026-05-06 17:38 55.43954 11.78794 14778 ft 346 kts 91°
2026-05-06 17:38 55.43904 11.83022 14175 ft 343 kts 91°
2026-05-06 17:39 55.43865 11.87208 13575 ft 341 kts 91°
2026-05-06 17:39 55.43835 11.91340 13194 ft 330 kts 90°
2026-05-06 17:39 55.43811 11.95276 13056 ft 313 kts 90°
2026-05-06 17:39 55.43789 11.99088 12549 ft 311 kts 90°
2026-05-06 17:40 55.43766 12.02884 12019 ft 309 kts 90°
2026-05-06 17:40 55.43743 12.06624 11607 ft 303 kts 90°
2026-05-06 17:40 55.43720 12.10302 11211 ft 296 kts 90°
2026-05-06 17:40 55.43530 12.13808 11089 ft 281 kts 108°
2026-05-06 17:41 55.42683 12.16778 10989 ft 266 kts 122°
2026-05-06 17:41 55.41674 12.19474 10651 ft 262 kts 124°
2026-05-06 17:41 55.40672 12.22122 10346 ft 258 kts 125°
2026-05-06 17:41 55.39639 12.24706 9932 ft 259 kts 125°
2026-05-06 17:42 55.38608 12.27275 9579 ft 255 kts 125°
2026-05-06 17:42 55.37587 12.29820 9190 ft 253 kts 124°
2026-05-06 17:42 55.36575 12.32326 8810 ft 250 kts 124°
2026-05-06 17:42 55.35570 12.34793 8440 ft 247 kts 123°
2026-05-06 17:43 55.34883 12.37502 8023 ft 243 kts 96°
2026-05-06 17:43 55.35080 12.40366 7671 ft 235 kts 64°
2026-05-06 17:43 55.36079 12.42551 7324 ft 230 kts 33°
2026-05-06 17:43 55.37577 12.43439 6940 ft 231 kts
2026-05-06 17:44 55.39185 12.43253 6528 ft 233 kts 356°
2026-05-06 17:44 55.40792 12.42896 6162 ft 231 kts 355°
2026-05-06 17:44 55.42383 12.42509 5736 ft 232 kts 355°
2026-05-06 17:44 55.43980 12.42238 5329 ft 228 kts
2026-05-06 17:45 55.45486 12.42759 5211 ft 213 kts 15°
2026-05-06 17:45 55.46877 12.43278 4981 ft 198 kts 15°
2026-05-06 17:45 55.48211 12.43788 4419 ft 195 kts 22°
2026-05-06 17:45 55.49316 12.45075 3798 ft 190 kts 47°
2026-05-06 17:46 55.50316 12.46609 3208 ft 192 kts 43°
2026-05-06 17:46 55.51337 12.48126 2629 ft 191 kts 45°
2026-05-06 17:46 55.52331 12.49657 2181 ft 191 kts 46°
2026-05-06 17:46 55.53337 12.51221 2057 ft 196 kts 46°
2026-05-06 17:47 55.54379 12.52837 1496 ft 196 kts 45°
2026-05-06 17:47 55.55387 12.54359 1067 ft 185 kts 45°
2026-05-06 17:47 55.56302 12.55805 798 ft 167 kts 46°
2026-05-06 17:47 55.57130 12.57086 624 ft 149 kts 46°
2026-05-06 17:48 55.57877 12.58269 420 ft 141 kts 45°
2026-05-06 17:48 55.58615 12.59397 217 ft 139 kts 44°
2026-05-06 17:48 55.59336 12.60525 41 ft 139 kts 46°
2026-05-06 17:48 55.59997 12.61548 27 ft 108 kts 41°
2026-05-06 17:49 55.60453 12.62256 24 ft 66 kts 41°
2026-05-06 17:49 55.60722 12.62666 29 ft 34 kts 34°
2026-05-06 17:49 55.60905 12.62839 24 ft 29 kts 17°
2026-05-06 17:49 55.61092 12.62908 23 ft 24 kts 12°
2026-05-06 17:50 55.61211 12.63060 26 ft 21 kts 37°
2026-05-06 17:50 55.61324 12.63219 27 ft 20 kts 40°
2026-05-06 17:50 55.61428 12.63382 26 ft 20 kts 41°
2026-05-06 17:50 55.61528 12.63538 23 ft 19 kts 41°
2026-05-06 17:51 55.61627 12.63690 23 ft 19 kts 42°
2026-05-06 17:51 55.61728 12.63848 23 ft 20 kts 41°
2026-05-06 17:51 55.61841 12.64022 27 ft 22 kts 40°
2026-05-06 17:51 55.61975 12.64156 25 ft 22 kts 25°
2026-05-06 17:52 55.62111 12.64268 23 ft 21 kts 25°
2026-05-06 17:52 55.62244 12.64376 21 ft 21 kts 19°
2026-05-06 17:52 55.62354 12.64431 22 ft 7 kts 14°
2026-05-06 17:52 55.62358 12.64433 23 ft 0 kts 14°
2026-05-06 17:53 55.62400 12.64444 23 ft 13 kts 356°
2026-05-06 17:54 55.62486 12.64304 24 ft 19 kts 306°
2026-05-06 17:54 55.62563 12.64210 25 ft 13 kts 22°
2026-05-06 17:54 55.62653 12.64303 24 ft 16 kts 23°
2026-05-06 17:54 55.62704 12.64334 23 ft 4 kts 356°
2026-05-06 17:55 55.62726 12.64295 24 ft 5 kts 305°
2026-05-06 17:55 55.62735 12.64269 23 ft 0 kts 303°